"Time","Temp","Dewpoint","Humidity","Pressure","Direction","Speed","Gust","Precip","PrecipRate"
"00:04:56","58.1","46.1","64.2","30.05","124","1.8","4","0.00","0.00"
"00:09:59","58","46.3","65","30.05","105","1.9","7","0.00","0.00"
"00:14:57","57.9","46.6","65.8","30.05","114","3.5","8.1","0.00","0.00"
"00:19:56","57.9","46.8","66.7","30.05","115","3.8","8.1","0.00","0.00"
"00:24:56","57.8","47.2","67.7","30.05","108","3.1","5","0.00","0.00"
"00:29:56","57.6","47.4","68.7","30.06","96","2.8","5","0.00","0.00"
"00:34:59","57.4","47.5","69.5","30.06","114","2.2","6","0.00","0.00"
"00:39:59","57.2","47.8","70.7","30.06","110","2.2","5.8","0.00","0.00"
"00:44:59","57.1","47.8","71","30.07","140","1.6","5","0.00","0.00"
"00:49:57","57","48.5","73.2","30.07","228","2.3","5","0.00","0.00"
"00:54:56","56.7","48.2","73.3","30.07","202","2.5","4.6","0.00","0.00"
"00:59:59","56.5","47.6","72","30.08","177","2.2","6","0.00","0.00"
"01:04:59","56.3","47.5","72.2","30.08","148","2","4","0.00","0.00"
"01:09:56","56.2","47.5","72.5","30.08","151","2.1","4","0.01","0.00"
"01:14:57","56","48.1","74.9","30.08","154","0.9","3","0.03","0.02"
"01:19:57","55.5","48.6","77.4","30.08","144","1.5","3.5","0.05","0.04"
"01:24:56","54.9","48.6","79.3","30.08","127","1.7","3.5","0.06","0.06"
"01:29:56","54.4","48.7","81.1","30.08","125","0.8","2.3","0.06","0.06"
"01:34:56","53.9","49","83.4","30.07","126","0","1.2","0.06","0.06"
"01:39:58","53.5","49.6","86.7","30.07","234","2.9","5","0.06","0.06"
"01:44:58","53.2","49.9","88.8","30.09","236","2","4","0.06","0.06"
"01:49:57","53","49.8","89","30.09","236","0.7","2.3","0.07","0.06"
"01:54:56","52.9","49.7","89","30.09","236","0.3","1.2","0.07","0.07"
"01:59:59","52.7","49.5","89","30.09","236","0.5","1.2","0.07","0.07"
"02:04:57","52.6","49.4","89","30.08","236","0","1.2","0.07","0.07"
"02:09:59","52.6","49.6","89.5","30.08","236","0.7","2.3","0.09","0.08"
"02:14:56","52.6","50","90.9","30.08","219","0.9","2.3","0.11","0.09"
"02:19:57","52.6","50","91","30.08","216","0.8","3.5","0.14","0.09"
"02:24:56","52.6","50.2","91.7","30.08","216","2","3.5","0.16","0.10"
"02:29:56","52.5","50.2","92","30.10","217","0.7","2.3","0.22","0.15"
"02:34:56","52.3","50","92","30.10","309","0.9","3.5","0.25","0.18"
"02:39:58","52.1","49.8","92","30.10","354","0.2","1.2","0.27","0.20"
"02:44:57","51.9","49.8","92.5","30.10","347","0.3","1.2","0.29","0.23"
"02:49:58","51.9","49.9","93","30.09","14","0.5","3","0.32","0.26"
"02:54:58","51.8","49.8","93","30.09","56","1.6","3.5","0.37","0.29"
"02:59:58","51.7","49.9","93.5","30.09","71","2","5","0.39","0.31"
"03:04:56","51.7","50","94","30.07","83","3","5","0.42","0.34"
"03:09:57","51.7","50","94","30.07","79","2.5","4.6","0.43","0.35"
"03:14:58","51.7","50","94","30.07","91","3.4","7","0.44","0.34"
"03:19:59","51.8","50.2","94.2","30.06","91","3.3","7","0.46","0.33"
"03:24:56","51.8","50.4","94.9","30.06","78","2.6","4","0.47","0.32"
"03:29:57","51.8","50.3","94.7","30.07","90","1.9","6","0.48","0.31"
"03:34:56","51.8","50.2","94.5","30.07","90","1.8","4","0.48","0.26"
"03:39:59","51.8","50.1","94.2","30.07","71","1.9","4","0.49","0.23"
"03:44:56","51.7","50.1","94.4","30.07","66","1.5","3.5","0.49","0.22"
"03:49:56","51.8","50.4","95","30.07","60","1.4","3.5","0.50","0.19"
"03:54:57","51.8","50.4","95","30.07","60","1.3","3.5","0.50","0.17"
"03:59:57","51.8","50.4","95","30.07","61","1.1","3","0.50","0.13"
"04:04:59","51.9","50.5","95","30.07","87","1.8","3.5","0.50","0.11"
"04:09:59","51.9","50.5","95","30.07","88","1.4","3.5","0.50","0.08"
"04:14:57","51.9","50.5","95","30.07","84","1.9","3.5","0.50","0.07"
"04:19:58","52","50.6","95","30.06","85","1.8","4","0.50","0.06"
"04:24:56","52","50.6","95","30.06","85","1.8","4","0.51","0.04"
"04:29:59","52","50.6","95","30.07","84","1.2","3.5","0.51","0.04"
"04:34:56","52","50.6","95","30.07","80","0","1","0.51","0.03"
"04:39:58","52","50.6","95","30.07","80","0.8","2.3","0.51","0.03"
"04:44:58","52","50.6","95","30.07","80","1.5","3.5","0.51","0.02"
"04:49:58","52.1","50.7","95","30.07","94","1.7","4","0.51","0.02"
"04:54:58","52.1","50.7","95","30.07","96","1.7","4","0.51","0.01"
"04:59:59","52.1","50.7","95","30.07","97","1.6","3.5","0.51","0.01"
"05:04:57","52.1","50.7","95","30.07","97","1.9","4","0.51","0.01"
"05:09:58","52.1","50.7","95","30.07","96","1.6","3.5","0.51","0.01"
"05:14:59","52.1","50.7","95","30.07","95","1.3","3.5","0.51","0.01"
"05:19:56","52.1","50.7","95","30.07","95","0.8","3","0.51","0.01"
"05:24:56","52.1","50.7","95","30.07","95","1.8","3.5","0.51","0.01"
"05:29:56","52.2","50.8","95","30.07","97","2.3","4","0.51","0.00"
"05:34:56","52.2","50.8","95","30.07","102","2.1","4","0.51","0.00"
"05:39:57","52.2","50.8","95","30.07","102","1.7","3.5","0.51","0.00"
"05:44:59","52.2","50.8","95","30.07","103","1.6","4","0.51","0.00"
"05:49:59","52.3","50.8","95","30.07","94","2.2","4","0.51","0.00"
"05:54:58","52.3","50.9","95","30.07","112","2.1","4","0.51","0.00"
"05:59:58","52.3","51","95.3","30.07","112","1.3","3.5","0.51","0.00"
"06:04:55","52.3","51.1","95.6","30.07","95","1.8","5","0.51","0.00"
"06:09:58","52.3","51.1","95.5","30.07","115","1.4","5","0.51","0.00"
"06:14:59","52.4","51","95","30.07","119","1.6","4","0.51","0.00"
"06:19:59","52.4","51","95","30.07","118","1.8","5","0.51","0.00"
"06:24:56","52.5","51.1","95","30.07","145","2","4","0.51","0.00"
"06:29:57","52.5","51.1","95","30.07","126","2.1","7","0.51","0.00"
"06:34:59","52.5","51.1","95","30.07","131","1.5","4.6","0.51","0.00"
"06:39:57","52.6","51.2","95","30.07","131","0.7","3.5","0.51","0.00"
"06:44:58","52.6","51.2","95","30.09","131","1","3.5","0.51","0.00"
"06:49:59","52.6","51.2","95","30.09","131","0.4","2.3","0.51","0.00"
"06:54:56","52.6","51.2","95","30.09","131","0.3","3","0.51","0.00"
"06:59:57","52.6","51.2","95","30.09","134","1","3.5","0.51","0.00"
"07:04:59","52.6","51.2","95","30.09","134","1.3","3.5","0.51","0.00"
"07:09:55","52.6","51.2","95","30.09","140","1.2","5","0.51","0.00"
"07:14:59","52.6","51.2","95","30.10","110","2","5","0.51","0.00"
"07:19:59","52.6","51.2","95","30.10","110","1.9","4","0.51","0.00"
"07:24:59","52.7","51.3","95","30.10","110","0.8","2.3","0.51","0.00"
"07:29:58","52.7","51.3","95","30.10","111","0.6","2.3","0.51","0.00"
"07:34:58","52.7","51.3","95","30.10","128","1","3.5","0.51","0.00"
"07:39:59","52.7","51.3","95","30.10","117","1.9","5","0.51","0.00"
"07:44:59","52.8","51.4","95","30.10","114","2.6","6","0.51","0.00"
"07:49:58","52.8","51.4","95","30.10","122","1.6","5.8","0.51","0.00"
"07:54:59","52.9","51.5","95","30.10","121","1.4","4","0.51","0.00"
"07:59:56","52.9","51.5","95","30.10","115","1.6","3.5","0.51","0.00"
"08:04:57","52.9","51.5","95","30.10","102","2.2","5","0.51","0.00"
"08:09:57","53","51.6","95","30.10","104","2.6","6","0.51","0.00"
"08:14:59","53","51.6","95","30.10","115","2.5","5","0.51","0.00"
"08:16:25","53","51.6","95","30.10","118","1.1","2.3","0.51","0.00"
"08:24:58","53.1","51.7","95","30.10","102","2","4","0.51","0.00"
"08:29:58","53.1","51.7","95","30.11","114","1.5","3.5","0.51","0.00"
"08:34:58","53.2","51.8","95","30.11","107","1.7","4","0.51","0.00"
"08:39:56","53.2","51.8","95","30.11","107","0.8","3.5","0.51","0.00"
"08:49:59","53.3","51.9","95","30.11","107","0.4","3","0.51","0.00"
"08:54:59","53.4","52","95","30.11","107","1.3","3.5","0.51","0.00"
"08:59:59","53.5","52.1","95","30.11","107","0","0","0.51","0.00"
"09:04:59","53.6","52.2","95","30.11","107","0.8","3.5","0.51","0.00"
"09:09:56","53.6","52.2","95","30.11","98","1.5","5","0.51","0.00"
"09:14:59","53.6","52.2","95","30.11","127","2.5","6","0.51","0.00"
"09:19:58","53.6","52.2","95","30.11","112","2.5","5","0.51","0.00"
"09:24:56","53.7","52.3","95","30.11","116","2.4","5","0.51","0.00"
"09:29:59","53.7","52.3","95","30.12","115","2.4","4.6","0.51","0.00"
"09:34:58","53.7","52.3","95","30.12","117","1.6","4","0.51","0.00"
"09:39:59","53.8","52.4","95","30.12","123","1.8","3.5","0.51","0.00"
"09:44:59","53.9","52.5","95","30.12","119","1.3","4","0.51","0.00"
"09:49:58","54","52.6","95","30.12","143","1.5","5","0.51","0.00"
"09:54:56","54.1","52.5","94.4","30.12","124","2","5","0.51","0.00"
"09:59:56","54.1","52.4","94","30.12","182","2","4","0.51","0.00"
"10:04:56","54.2","52.5","94","30.12","141","2","4","0.51","0.00"
"10:09:56","54.2","52.5","94","30.12","111","2.3","5","0.51","0.00"
"10:14:56","54.2","52.5","94.1","30.12","116","1.9","4","0.51","0.00"
"10:19:59","54.3","52.8","94.7","30.12","134","1.6","4","0.51","0.00"
"10:24:58","54.4","52.8","94.3","30.12","112","2","5","0.51","0.00"
"10:29:57","54.5","52.8","94","30.12","132","2.8","6","0.51","0.00"
"10:30:56","54.5","52.8","94","30.11","111","2.9","5.8","0.51","0.00"
"10:39:56","54.6","52.9","94","30.11","116","3.2","7","0.51","0.00"
"10:44:58","54.7","53","94","30.11","129","3.2","6","0.51","0.00"
"10:49:57","54.8","53.1","94","30.11","112","2.9","5.8","0.51","0.00"
"10:54:57","54.9","53.3","94.3","30.11","110","0.6","5","0.51","0.00"
"10:59:59","55.1","53.4","94.1","30.11","131","2.3","5","0.51","0.00"
"11:04:56","55.2","53.4","93.6","30.11","103","3.3","6","0.51","0.00"
"11:09:56","55.2","53.2","93","30.11","113","2.8","6","0.51","0.00"
"11:14:57","55.3","53.5","93.7","30.11","103","2.9","6","0.51","0.00"
"11:19:57","55.4","53.5","93.4","30.10","107","3.1","6","0.51","0.00"
"11:24:56","55.6","53.6","93","30.10","115","2.5","5.8","0.51","0.00"
"11:29:59","55.7","53.7","93","30.11","114","2.2","5","0.51","0.00"
"11:34:59","55.8","53.7","92.6","30.11","143","2.4","4.6","0.51","0.00"
"11:44:58","56","54","93","30.11","104","1.7","4","0.51","0.00"
"11:49:58","56.1","53.8","92","30.10","108","3","6","0.51","0.00"
"11:54:57","56.1","53.8","92","30.10","96","2.5","6","0.51","0.00"
"11:59:56","56.2","53.9","92","30.10","104","2.3","5.8","0.51","0.00"
"12:04:57","56.4","54.1","92.3","30.10","122","2","4","0.51","0.00"
"12:09:58","56.5","54.2","92","30.10","105","2.7","5","0.51","0.00"
"12:14:56","56.6","54.3","92","30.10","102","2.4","5","0.51","0.00"
"12:19:59","56.8","54.5","92","30.10","102","1","2.3","0.51","0.00"
"12:24:59","56.9","54.5","91.5","30.10","107","1.1","4","0.51","0.00"
"12:29:58","57","54.5","91.3","30.10","116","1.9","4","0.51","0.00"
"12:34:57","57.1","54.5","91","30.10","125","1.4","3.5","0.51","0.00"
"12:39:57","57.2","54.6","91","30.10","136","1.5","4","0.51","0.00"
"12:44:59","57.3","54.7","91","30.10","95","2.5","5","0.51","0.00"
"12:49:59","57.3","54.7","91","30.09","101","1.6","4","0.51","0.00"
"12:54:59","57.4","54.8","91","30.09","108","2.3","5","0.51","0.00"
"12:59:59","57.5","55","91.3","30.09","110","0.8","3.5","0.51","0.00"
"13:04:55","57.6","55","91","30.09","117","2","4","0.51","0.00"
"13:09:56","57.7","55.1","91","30.09","123","1.3","3.5","0.51","0.00"
"13:14:59","57.8","55.2","91","30.09","120","1.6","4","0.51","0.00"
"13:19:59","57.9","55.3","91","30.09","135","1.6","4","0.51","0.00"
"13:24:59","58","55.4","91","30.09","154","1.9","3.5","0.51","0.00"
"13:29:56","58","55.4","90.8","30.09","137","2.5","5","0.51","0.00"
"13:34:56","58","55.3","90.5","30.09","113","2.5","5","0.51","0.00"
"13:39:58","58","55.4","91","30.09","116","2.1","4","0.51","0.00"
"13:44:57","58.1","55.5","90.9","30.09","151","1.6","4","0.51","0.00"
"13:49:57","58.1","55.4","90.5","30.09","92","1.8","4","0.51","0.00"
"13:54:56","58.2","55.6","90.9","30.09","94","1.7","6","0.51","0.00"
"13:59:58","58.2","55.6","91","30.09","113","2.8","5.8","0.51","0.00"
"14:04:59","58.3","55.7","91","30.09","120","1.9","5","0.51","0.00"
"14:09:59","58.4","55.7","90.7","30.09","109","2.6","5","0.51","0.00"
"14:14:56","58.4","55.5","90","30.09","97","2.8","5","0.51","0.00"
"14:19:59","58.5","55.6","90.1","30.08","104","2.8","6","0.51","0.00"
"14:24:58","58.5","55.7","90.4","30.08","116","2.8","6","0.51","0.00"
"14:29:57","58.5","55.7","90.1","30.08","105","2.7","7","0.51","0.00"
"14:34:56","58.6","55.8","90.1","30.07","129","2","4","0.51","0.00"
"14:39:58","58.7","55.8","90","30.07","151","1.3","5","0.51","0.00"
"14:44:56","58.7","55.8","90","30.07","104","2.7","6","0.51","0.00"
"14:49:59","58.8","55.9","90","30.07","94","2.3","4","0.51","0.00"
"14:54:57","58.8","55.9","90","30.07","100","3.1","5.8","0.51","0.00"
"14:59:59","58.8","55.8","89.6","30.07","115","3.3","7","0.51","0.00"
"15:04:56","58.9","56","90","30.07","126","2.6","9.2","0.51","0.00"
"15:09:57","59.1","56.2","90","30.07","108","2.6","6","0.51","0.00"
"15:14:57","59.2","56.3","90","30.07","101","4.1","7","0.51","0.00"
"15:19:56","59.2","56.1","89.5","30.06","124","2.2","6.9","0.51","0.00"
"15:24:58","59.2","56.2","89.7","30.06","130","1.9","6","0.51","0.00"
"15:29:56","59.2","56","89","30.07","118","2.7","6","0.51","0.00"
"15:34:58","59.2","56","89","30.07","109","2.1","7","0.51","0.00"
"15:39:54","59.1","55.9","89.1","30.07","111","1.8","5","0.51","0.00"
"15:44:56","59.1","55.9","89.1","30.07","121","2","4","0.51","0.00"
"15:49:58","59.1","56.2","90","30.07","95","2.8","6","0.57","0.05"
"15:54:57","59.1","56.5","91.2","30.07","155","1.1","4.6","0.63","0.11"
"15:59:56","59","56.7","92.2","30.07","124","2.2","3.5","0.63","0.12"
"16:04:56","59","57","93","30.06","122","1.5","3.5","0.63","0.12"
"16:09:56","58.9","56.9","93","30.06","122","1.4","4","0.63","0.12"
"16:14:56","58.9","56.9","93","30.06","123","2.2","4","0.63","0.12"
"16:19:58","58.9","57.2","93.9","30.06","122","1.9","4","0.63","0.12"
"16:24:56","58.9","57.2","94","30.06","106","1.7","3.5","0.63","0.12"
"16:29:57","59","57.3","94","30.06","85","0.7","3.5","0.63","0.12"
"16:34:59","59","57.3","94","30.06","84","0","1.2","0.63","0.12"
"16:39:59","59","57.3","94","30.06","84","0","0","0.63","0.12"
"16:44:58","59","57.3","94","30.07","84","0","0","0.63","0.12"
"16:49:57","59.1","57.4","94","30.07","84","0","0","0.63","0.12"
"16:54:56","59.1","57.4","94","30.07","84","0","0","0.63","0.05"
"16:59:59","59.1","57.4","94","30.07","84","0","0","0.63","0.00"
"17:04:56","59.2","57.5","94","30.07","84","0.3","2","0.63","0.00"
"17:09:56","59.3","57.6","94","30.07","84","0.5","2.3","0.63","0.00"
"17:14:57","59.5","57.9","94.4","30.07","84","0.2","1.2","0.63","0.00"
"17:19:59","59.5","57.8","94","30.06","77","0.7","2.3","0.63","0.00"
"17:24:57","59.6","57.8","93.9","30.06","75","1","3.5","0.63","0.00"
"17:29:58","59.4","57.4","93","30.06","79","1.9","4","0.64","0.01"
"17:34:57","59.3","57.3","93","30.05","121","1.7","4","0.64","0.01"
"17:39:56","59.2","57.2","93","30.05","120","0.6","3.5","0.64","0.01"
"17:44:58","59.1","57.1","93","30.06","18","0.9","4","0.64","0.01"
"17:49:57","58.9","56.9","93","30.06","36","1.3","4","0.64","0.01"
"17:54:58","58.7","56.7","93","30.06","82","2.2","5","0.64","0.01"
"17:59:57","58.7","56.9","93.8","30.06","95","1.2","4","0.64","0.01"
"18:04:57","58.7","56.8","93.2","30.06","119","1.5","4","0.64","0.01"
"18:09:57","58.7","56.7","93.2","30.06","83","1.8","5","0.64","0.01"
"18:14:57","58.6","56.8","93.7","30.06","79","1.9","4","0.64","0.01"
"18:19:58","58.6","56.8","93.4","30.05","64","1.6","3.5","0.64","0.01"
"18:24:59","58.7","56.7","93","30.05","62","1.8","3.5","0.64","0.01"
"18:29:56","58.6","56.6","93","30.06","32","0.7","4","0.64","0.01"
"18:34:58","58.5","56.5","93","30.06","35","0.9","4","0.64","0.00"
"18:39:57","58.5","56.5","93","30.06","98","2.1","4","0.64","0.00"
"18:44:59","58.4","56.4","93","30.06","98","2.6","5","0.64","0.00"
"18:49:57","58.4","56.4","93","30.06","97","1.4","3.5","0.64","0.00"
"18:54:56","58.4","56.4","93","30.06","97","0.2","2.3","0.64","0.00"
"18:59:58","58.4","56.4","93","30.07","97","0.1","1.2","0.64","0.00"
"19:04:59","58.4","56.4","93","30.07","97","0.2","2.3","0.64","0.00"
"19:09:55","58.3","56.3","93","30.07","74","1.3","3.5","0.64","0.00"
"19:14:56","58.3","56.3","93","30.07","73","1","3","0.64","0.00"
"19:19:58","58.3","56.3","93","30.07","73","1.2","3.5","0.64","0.00"
"19:24:57","58.3","56.6","93.9","30.07","73","0.3","2","0.64","0.00"
"19:29:59","58.4","56.7","94","30.07","72","0.4","2.3","0.64","0.00"
"19:34:57","58.4","56.7","94","30.06","65","0.5","2.3","0.64","0.00"
"19:39:58","58.4","56.7","94","30.06","66","0.8","3.5","0.64","0.00"
"19:44:57","58.3","56.6","94","30.06","67","0.6","3.5","0.64","0.00"
"19:49:59","58.3","56.5","93.6","30.06","78","0.8","3.5","0.64","0.00"
"19:54:58","58.3","56.3","93","30.06","82","0.9","5","0.64","0.00"
"19:59:57","58.3","56.3","93","30.06","62","1.6","5","0.64","0.00"
"20:04:58","58.2","56.2","93","30.06","86","1.9","5","0.64","0.00"
"20:09:58","58.2","56.2","93","30.06","87","2","5","0.64","0.00"
"20:14:59","58.1","56.1","93","30.06","101","2.3","4","0.64","0.00"
"20:19:56","58.2","55.9","92.1","30.06","102","1.9","4","0.64","0.00"
"20:24:58","58.1","55.8","92","30.06","88","2.6","5","0.64","0.00"
"20:29:56","58.1","55.8","92","30.06","80","1.9","4","0.64","0.00"
"20:34:59","58.1","55.8","92","30.06","89","2.1","4","0.64","0.00"
"20:39:59","58.1","55.8","92","30.06","84","1.9","4","0.64","0.00"
"20:44:57","58.1","55.8","92","30.06","66","2.2","5","0.64","0.00"
"20:49:59","58.1","55.8","92","30.06","78","0.8","2.3","0.64","0.00"
"20:54:57","58.1","55.8","92","30.06","82","1.7","5","0.64","0.00"
"20:59:55","58","55.8","92.3","30.06","95","1.3","4.6","0.64","0.00"
"21:04:59","58","55.7","92","30.05","94","0.7","2.3","0.64","0.00"
"21:09:56","58","55.7","92.2","30.05","94","1.3","3.5","0.64","0.00"
"21:14:59","57.9","55.6","92.2","30.06","94","0.4","2.3","0.64","0.00"
"21:19:57","57.8","55.5","92","30.06","92","0.5","3","0.64","0.00"
"21:24:59","57.8","55.5","92","30.06","94","1.2","3.5","0.64","0.00"
"21:29:57","57.8","55.5","92","30.07","94","0.4","2.3","0.64","0.00"
"21:34:58","57.8","55.5","92.1","30.07","91","1.7","4","0.64","0.00"
"21:39:58","57.7","55.4","92","30.07","93","1.4","3.5","0.64","0.00"
"21:44:56","57.7","55.4","92","30.07","101","1.7","3.5","0.64","0.00"
"21:49:58","57.7","55.4","92","30.07","101","0.6","3","0.64","0.00"
"21:54:56","57.6","55.3","92","30.07","98","1.6","4","0.64","0.00"
"21:59:58","57.6","55.3","92","30.07","104","1.8","4","0.64","0.00"
"22:04:59","57.6","55.3","92","30.07","105","1","3.5","0.64","0.00"
"22:09:59","57.6","55.3","92","30.07","105","0","0","0.64","0.00"
"22:14:58","57.5","55.2","92","30.07","105","0","0","0.64","0.00"
"22:24:59","57.5","55.2","92","30.07","105","0","0","0.64","0.00"
"22:29:57","57.4","55.1","92","30.07","105","1","3.5","0.64","0.00"
"22:34:59","57.4","55.1","92","30.06","85","1.9","5","0.64","0.00"
"22:39:57","57.4","55.1","92","30.06","81","1.8","4","0.64","0.00"
"22:44:59","57.4","55.1","92","30.06","81","1.3","4","0.64","0.00"
"22:49:57","57.3","55","92","30.06","81","1.6","3.5","0.64","0.00"
"22:54:52","57.3","55","92","30.06","81","0.1","2.3","0.64","0.00"
"22:59:57","57.3","55","92","30.06","80","0.5","2.3","0.64","0.00"
"23:04:59","57.2","55.2","92.9","30.06","79","0.5","3.5","0.64","0.00"
"23:09:58","57.2","55.2","93","30.06","79","0.2","2.3","0.64","0.00"
"23:14:57","57.2","55.2","93","30.06","78","0.2","1.2","0.64","0.00"
"23:19:59","57.1","55.1","93","30.06","78","0.4","2.3","0.64","0.00"
"23:24:56","57.1","55.1","93","30.06","78","0.1","2.3","0.64","0.00"
"23:29:59","57","55","93","30.06","78","0.1","1.2","0.64","0.00"
"23:34:57","57","55","93","30.06","78","0.3","2.3","0.64","0.00"
"23:39:59","57","55","93","30.06","78","0.3","2.3","0.64","0.00"
"23:44:57","57","55","93","30.06","78","1.1","3.5","0.64","0.00"
"23:49:58","57","55.1","93.5","30.06","78","0.7","2.3","0.64","0.00"
"23:54:52","56.9","55.2","94","30.06","78","0.6","2.3","0.64","0.00"
"23:59:56","56.9","55.2","94","30.07","27","0.6","3.5","0.64","0.00"
